Time,TemperatureF,DewpointF,PressureIn,WindDirection,WindDirectionDegrees,WindSpeedMPH,WindSpeedGustMPH,Humidity,HourlyPrecipIn,Conditions,Clouds,dailyrainin,SolarRadiationWatts/m^2,SoftwareType,DateUTC
2013-09-08 00:00:00,53.0,48.6,30.15,NNW,337,0.0,0.0,85,0.00,FEW,,0.00,0.0,WeatherDisplay:10.37,2013-09-07 22:00:00,
2013-09-08 00:05:00,53.0,48.9,30.15,NNW,337,0.4,2.3,86,0.00,FEW,,0.00,0.0,WeatherDisplay:10.37,2013-09-07 22:05:00,
2013-09-08 00:10:00,52.9,48.9,30.16,NE,34,0.0,7.0,86,0.00,FEW,,0.00,0.0,WeatherDisplay:10.37,2013-09-07 22:10:00,
2013-09-08 00:16:00,53.3,49.5,30.16,ENE,65,2.3,5.0,87,0.00,FEW,,0.00,0.0,WeatherDisplay:10.37,2013-09-07 22:16:00,
2013-09-08 00:21:00,54.3,49.9,30.16,ESE,105,0.6,4.6,85,0.00,FEW,,0.00,0.0,WeatherDisplay:10.37,2013-09-07 22:21:00,
2013-09-08 00:26:00,55.5,49.8,30.16,ESE,118,3.4,9.2,81,0.00,FEW,,0.00,0.0,WeatherDisplay:10.37,2013-09-07 22:26:00,
2013-09-08 00:31:00,56.8,50.0,30.16,East,101,2.7,5.8,78,0.00,FEW,,0.00,0.0,WeatherDisplay:10.37,2013-09-07 22:31:00,
2013-09-08 00:36:00,58.0,49.4,30.16,South,173,1.1,3.5,73,0.00,FEW,,0.00,0.0,WeatherDisplay:10.37,2013-09-07 22:36:00,
2013-09-08 00:41:00,58.8,50.2,30.16,SSW,192,0.7,2.3,73,0.00,FEW,,0.00,0.0,WeatherDisplay:10.37,2013-09-07 22:41:00,
2013-09-08 00:46:00,59.2,50.2,30.16,SSW,211,2.3,4.0,72,0.00,FEW,,0.00,0.0,WeatherDisplay:10.37,2013-09-07 22:46:00,
2013-09-08 00:51:00,59.0,50.0,30.16,SW,228,0.0,1.2,72,0.00,FEW,,0.00,0.0,WeatherDisplay:10.37,2013-09-07 22:51:00,
2013-09-08 00:56:00,58.5,49.5,30.16,SW,228,0.0,1.2,72,0.00,FEW,,0.00,0.0,WeatherDisplay:10.37,2013-09-07 22:56:00,
2013-09-08 01:01:00,58.0,49.0,30.16,SW,228,0.0,0.0,72,0.00,FEW,,0.00,0.0,WeatherDisplay:10.37,2013-09-07 23:01:00,
2013-09-08 01:06:00,57.3,48.7,30.16,SW,228,0.0,0.0,73,0.00,FEW,,0.00,0.0,WeatherDisplay:10.37,2013-09-07 23:06:00,
2013-09-08 01:11:00,56.6,48.0,30.17,SW,228,0.0,1.2,73,0.00,FEW,,0.00,0.0,WeatherDisplay:10.37,2013-09-07 23:11:00,
2013-09-08 01:16:00,56.0,47.8,30.16,SW,228,0.0,1.2,74,0.00,FEW,,0.00,0.0,WeatherDisplay:10.37,2013-09-07 23:16:00,
2013-09-08 01:21:00,55.3,47.5,30.16,SW,228,0.0,0.0,75,0.00,FEW,,0.00,0.0,WeatherDisplay:10.37,2013-09-07 23:21:00,
2013-09-08 01:26:00,54.7,47.6,30.16,SW,228,0.0,0.0,77,0.00,FEW,,0.00,0.0,WeatherDisplay:10.37,2013-09-07 23:26:00,
2013-09-08 01:31:00,54.2,47.5,30.16,SW,228,0.0,0.0,78,0.00,FEW,,0.00,0.0,WeatherDisplay:10.37,2013-09-07 23:31:00,
2013-09-08 01:36:00,53.8,47.4,30.16,SW,228,0.0,0.0,79,0.00,FEW,,0.00,0.0,WeatherDisplay:10.37,2013-09-07 23:36:00,
2013-09-08 01:41:00,53.4,47.0,30.16,SW,228,0.0,0.0,79,0.00,FEW,,0.00,0.0,WeatherDisplay:10.37,2013-09-07 23:41:00,
2013-09-08 01:46:00,53.1,47.1,30.16,SW,228,0.0,0.0,80,0.00,FEW,,0.00,0.0,WeatherDisplay:10.37,2013-09-07 23:46:00,
2013-09-08 01:51:00,52.8,46.8,30.16,SW,228,0.0,0.0,80,0.00,FEW,,0.00,0.0,WeatherDisplay:10.37,2013-09-07 23:51:00,
2013-09-08 01:56:00,52.5,46.8,30.17,SW,228,0.0,0.0,81,0.00,FEW,,0.00,0.0,WeatherDisplay:10.37,2013-09-07 23:56:00,
2013-09-08 02:01:00,52.3,46.6,30.17,SW,228,0.0,0.0,81,0.00,FEW,,0.00,0.0,WeatherDisplay:10.37,2013-09-08 00:01:00,
2013-09-08 02:06:00,52.0,46.7,30.17,SW,228,0.0,0.0,82,0.00,FEW,,0.00,0.0,WeatherDisplay:10.37,2013-09-08 00:06:00,
2013-09-08 02:11:00,51.9,46.6,30.17,SW,228,0.0,0.0,82,0.00,FEW,,0.00,0.0,WeatherDisplay:10.37,2013-09-08 00:11:00,
2013-09-08 02:16:00,51.7,46.7,30.16,SW,228,0.0,0.0,83,0.00,FEW,,0.00,0.0,WeatherDisplay:10.37,2013-09-08 00:16:00,
2013-09-08 02:21:00,51.6,46.6,30.17,SW,228,0.0,0.0,83,0.00,FEW,,0.00,0.0,WeatherDisplay:10.37,2013-09-08 00:21:00,
2013-09-08 02:26:00,51.5,46.8,30.16,SW,228,0.0,0.0,84,0.00,FEW,,0.00,0.0,WeatherDisplay:10.37,2013-09-08 00:26:00,
2013-09-08 02:31:00,51.3,46.6,30.16,SW,228,0.0,0.0,84,0.00,FEW,,0.00,0.0,WeatherDisplay:10.37,2013-09-08 00:31:00,
2013-09-08 02:36:00,51.3,46.9,30.16,SW,228,0.0,1.2,85,0.00,FEW,,0.00,0.0,WeatherDisplay:10.37,2013-09-08 00:36:00,
2013-09-08 02:41:00,51.2,46.8,30.16,SW,228,0.0,0.0,85,0.00,FEW,,0.00,0.0,WeatherDisplay:10.37,2013-09-08 00:41:00,
2013-09-08 02:46:00,51.1,46.7,30.16,SW,228,0.0,0.0,85,0.00,FEW,,0.00,0.0,WeatherDisplay:10.37,2013-09-08 00:46:00,
2013-09-08 02:51:00,51.1,46.7,30.16,SW,228,0.0,0.0,85,0.00,FEW,,0.00,0.0,WeatherDisplay:10.37,2013-09-08 00:51:00,
2013-09-08 02:56:00,51.1,46.7,30.16,SW,228,0.0,0.0,85,0.00,FEW,,0.00,0.0,WeatherDisplay:10.37,2013-09-08 00:56:00,
2013-09-08 03:01:00,51.0,46.6,30.16,SW,228,1.2,2.3,85,0.00,FEW,,0.00,0.0,WeatherDisplay:10.37,2013-09-08 01:01:00,
2013-09-08 03:06:00,50.9,46.9,30.16,WSW,250,0.0,0.0,86,0.00,FEW,,0.00,0.0,WeatherDisplay:10.37,2013-09-08 01:06:00,
2013-09-08 03:11:00,50.9,46.9,30.17,WSW,250,0.0,0.0,86,0.00,FEW,,0.00,0.0,WeatherDisplay:10.37,2013-09-08 01:11:00,
2013-09-08 03:16:00,50.9,46.9,30.17,WSW,250,0.0,0.0,86,0.00,FEW,,0.00,0.0,WeatherDisplay:10.37,2013-09-08 01:16:00,
2013-09-08 03:21:00,50.8,46.8,30.17,WSW,250,0.0,0.0,86,0.00,FEW,,0.00,0.0,WeatherDisplay:10.37,2013-09-08 01:21:00,
2013-09-08 03:26:00,50.9,46.9,30.17,WSW,250,0.0,0.0,86,0.00,FEW,,0.00,0.0,WeatherDisplay:10.37,2013-09-08 01:26:00,
2013-09-08 03:31:00,50.9,46.9,30.17,WSW,250,0.0,0.0,86,0.00,FEW,,0.00,0.0,WeatherDisplay:10.37,2013-09-08 01:31:00,
2013-09-08 03:36:00,50.9,46.9,30.17,WSW,252,0.0,0.0,86,0.00,FEW,,0.00,0.0,WeatherDisplay:10.37,2013-09-08 01:36:00,
2013-09-08 03:41:00,50.9,46.9,30.17,WSW,252,0.0,0.0,86,0.00,FEW,,0.00,0.0,WeatherDisplay:10.37,2013-09-08 01:41:00,
2013-09-08 03:46:00,50.9,46.9,30.17,WSW,252,0.0,0.0,86,0.00,FEW,,0.00,0.0,WeatherDisplay:10.37,2013-09-08 01:46:00,
2013-09-08 03:51:00,50.8,46.8,30.17,WSW,256,0.0,0.0,86,0.00,FEW,,0.00,0.0,WeatherDisplay:10.37,2013-09-08 01:51:00,
2013-09-08 03:56:00,50.7,46.7,30.17,WNW,297,0.0,1.2,86,0.00,FEW,,0.00,0.0,WeatherDisplay:10.37,2013-09-08 01:56:00,
2013-09-08 04:01:00,50.7,46.7,30.17,WNW,297,0.0,1.2,86,0.00,FEW,,0.00,0.0,WeatherDisplay:10.37,2013-09-08 02:01:00,
2013-09-08 04:06:00,50.7,46.7,30.17,WNW,297,0.0,0.0,86,0.00,FEW,,0.00,0.0,WeatherDisplay:10.37,2013-09-08 02:06:00,
2013-09-08 04:11:00,50.6,46.6,30.17,WNW,298,0.0,0.0,86,0.00,FEW,,0.00,0.0,WeatherDisplay:10.37,2013-09-08 02:11:00,
2013-09-08 04:16:00,50.5,46.5,30.17,WNW,297,0.0,0.0,86,0.00,FEW,,0.00,0.0,WeatherDisplay:10.37,2013-09-08 02:16:00,
2013-09-08 04:21:00,50.4,46.4,30.17,WNW,297,0.0,0.0,86,0.00,FEW,,0.00,0.0,WeatherDisplay:10.37,2013-09-08 02:21:00,
2013-09-08 04:26:00,50.2,46.2,30.17,WNW,297,0.0,0.0,86,0.00,FEW,,0.00,0.0,WeatherDisplay:10.37,2013-09-08 02:26:00,
2013-09-08 04:31:00,50.1,46.1,30.16,WNW,297,0.0,0.0,86,0.00,FEW,,0.00,0.0,WeatherDisplay:10.37,2013-09-08 02:31:00,
2013-09-08 04:36:00,49.9,45.9,30.16,WNW,297,0.0,0.0,86,0.00,FEW,,0.00,0.0,WeatherDisplay:10.37,2013-09-08 02:36:00,
2013-09-08 04:41:00,49.7,45.7,30.16,WNW,298,0.0,0.0,86,0.00,FEW,,0.00,0.0,WeatherDisplay:10.37,2013-09-08 02:41:00,
2013-09-08 04:46:00,49.6,45.6,30.16,WNW,297,0.0,0.0,86,0.00,FEW,,0.00,0.0,WeatherDisplay:10.37,2013-09-08 02:46:00,
2013-09-08 04:51:00,49.4,45.4,30.16,WNW,297,0.0,0.0,86,0.00,FEW,,0.00,0.0,WeatherDisplay:10.37,2013-09-08 02:51:00,
2013-09-08 04:56:00,49.2,45.2,30.17,WNW,298,0.0,0.0,86,0.00,FEW,,0.00,0.0,WeatherDisplay:10.37,2013-09-08 02:56:00,
2013-09-08 05:01:00,49.0,45.0,30.17,WNW,298,0.0,0.0,86,0.00,FEW,,0.00,0.0,WeatherDisplay:10.37,2013-09-08 03:01:00,
2013-09-08 05:06:00,48.9,45.2,30.17,WNW,297,0.0,0.0,87,0.00,FEW,,0.00,0.0,WeatherDisplay:10.37,2013-09-08 03:06:00,
2013-09-08 05:11:00,48.7,45.0,30.17,WNW,298,0.0,0.0,87,0.00,FEW,,0.00,0.0,WeatherDisplay:10.37,2013-09-08 03:11:00,
2013-09-08 05:16:00,48.6,44.9,30.17,WNW,298,0.0,0.0,87,0.00,FEW,,0.00,0.0,WeatherDisplay:10.37,2013-09-08 03:16:00,
2013-09-08 05:21:00,48.5,44.8,30.17,WNW,297,0.0,0.0,87,0.00,FEW,,0.00,0.0,WeatherDisplay:10.37,2013-09-08 03:21:00,
2013-09-08 05:26:00,48.3,44.9,30.17,WNW,298,0.0,0.0,88,0.00,FEW,,0.00,0.0,WeatherDisplay:10.37,2013-09-08 03:26:00,
2013-09-08 05:31:00,48.2,44.8,30.18,WNW,298,0.0,0.0,88,0.00,FEW,,0.00,0.0,WeatherDisplay:10.37,2013-09-08 03:31:00,
2013-09-08 05:36:00,48.1,44.7,30.18,WNW,298,0.0,0.0,88,0.00,FEW,,0.00,0.0,WeatherDisplay:10.37,2013-09-08 03:36:00,
2013-09-08 05:41:00,48.0,44.6,30.18,WNW,297,0.0,0.0,88,0.00,FEW,,0.00,0.0,WeatherDisplay:10.37,2013-09-08 03:41:00,
2013-09-08 05:46:00,47.8,44.4,30.18,WNW,297,0.0,1.2,88,0.00,FEW,,0.00,0.0,WeatherDisplay:10.37,2013-09-08 03:46:00,
2013-09-08 05:51:00,47.7,44.3,30.18,WNW,297,0.0,0.0,88,0.00,FEW,,0.00,0.0,WeatherDisplay:10.37,2013-09-08 03:51:00,
2013-09-08 05:56:00,47.7,44.3,30.18,WNW,297,0.0,0.0,88,0.00,FEW,,0.00,0.0,WeatherDisplay:10.37,2013-09-08 03:56:00,
2013-09-08 06:01:00,47.6,44.2,30.18,WNW,297,0.0,0.0,88,0.00,FEW,,0.00,0.0,WeatherDisplay:10.37,2013-09-08 04:01:00,
2013-09-08 06:03:00,47.5,44.1,30.18,WNW,297,0.0,0.0,88,0.00,FEW,,0.00,0.0,WeatherDisplay:10.37,2013-09-08 04:03:00,
2013-09-08 06:04:00,47.5,44.1,30.18,WNW,297,0.0,0.0,88,0.00,FEW,,0.00,0.0,WeatherDisplay:10.37,2013-09-08 04:04:00,
2013-09-08 06:06:00,47.5,44.4,30.18,WNW,297,0.0,0.0,89,0.00,FEW,,0.00,0.0,WeatherDisplay:10.37,2013-09-08 04:06:00,
2013-09-08 06:08:00,47.5,44.4,30.18,WNW,298,0.0,0.0,89,0.00,FEW,,0.00,0.0,WeatherDisplay:10.37,2013-09-08 04:08:00,
2013-09-08 06:13:00,47.4,44.3,30.18,WNW,298,0.0,0.0,89,0.00,FEW,,0.00,5.0,WeatherDisplay:10.37,2013-09-08 04:13:00,
2013-09-08 06:18:00,47.3,44.2,30.18,WNW,297,0.0,0.0,89,0.00,FEW,,0.00,7.0,WeatherDisplay:10.37,2013-09-08 04:18:00,
2013-09-08 06:23:00,47.3,44.2,30.18,WNW,297,0.0,0.0,89,0.00,FEW,,0.00,9.0,WeatherDisplay:10.37,2013-09-08 04:23:00,
2013-09-08 06:28:00,47.2,44.1,30.18,WNW,297,0.0,0.0,89,0.00,FEW,,0.00,12.0,WeatherDisplay:10.37,2013-09-08 04:28:00,
2013-09-08 06:33:00,47.2,44.1,30.18,ENE,73,0.2,1.2,89,0.00,FEW,,0.00,14.0,WeatherDisplay:10.37,2013-09-08 04:33:00,
2013-09-08 06:38:00,47.3,44.5,30.19,ENE,73,0.0,0.0,90,0.00,FEW,,0.00,18.0,WeatherDisplay:10.37,2013-09-08 04:38:00,
2013-09-08 06:43:00,47.3,44.5,30.19,ENE,73,0.0,0.0,90,0.00,FEW,,0.00,30.0,WeatherDisplay:10.37,2013-09-08 04:43:00,
2013-09-08 06:48:00,47.3,44.5,30.19,ENE,73,0.0,1.2,90,0.00,FEW,,0.00,37.0,WeatherDisplay:10.37,2013-09-08 04:48:00,
2013-09-08 06:53:00,47.4,44.6,30.19,ENE,73,0.0,0.0,90,0.00,FEW,,0.00,46.0,WeatherDisplay:10.37,2013-09-08 04:53:00,
2013-09-08 06:58:00,47.4,44.9,30.19,ENE,73,0.0,0.0,91,0.00,FEW,,0.00,58.0,WeatherDisplay:10.37,2013-09-08 04:58:00,
2013-09-08 07:03:00,47.5,45.0,30.19,ENE,73,0.0,0.0,91,0.00,FEW,,0.00,69.0,WeatherDisplay:10.37,2013-09-08 05:03:00,
2013-09-08 07:08:00,47.9,45.4,30.20,ENE,73,0.0,0.0,91,0.00,FEW,,0.00,81.0,WeatherDisplay:10.37,2013-09-08 05:08:00,
2013-09-08 07:13:00,48.2,45.7,30.20,ENE,73,0.2,1.2,91,0.00,FEW,,0.00,93.0,WeatherDisplay:10.37,2013-09-08 05:13:00,
2013-09-08 07:18:00,48.4,46.2,30.20,ENE,73,0.0,0.0,92,0.00,FEW,,0.00,105.0,WeatherDisplay:10.37,2013-09-08 05:18:00,
2013-09-08 07:23:00,48.7,46.5,30.20,ENE,73,0.0,0.0,92,0.00,FEW,,0.00,120.0,WeatherDisplay:10.37,2013-09-08 05:23:00,
2013-09-08 07:28:00,49.1,46.9,30.20,ENE,73,0.0,0.0,92,0.00,CLR,,0.00,128.0,WeatherDisplay:10.37,2013-09-08 05:28:00,
2013-09-08 07:33:00,49.7,47.5,30.20,ENE,73,0.0,0.0,92,0.00,CLR,,0.00,139.0,WeatherDisplay:10.37,2013-09-08 05:33:00,
2013-09-08 07:38:00,50.4,48.2,30.20,ENE,73,0.0,1.2,92,0.00,CLR,,0.00,148.0,WeatherDisplay:10.37,2013-09-08 05:38:00,
2013-09-08 07:43:00,51.0,48.5,30.20,ENE,73,0.0,0.0,91,0.00,CLR,,0.00,160.0,WeatherDisplay:10.37,2013-09-08 05:43:00,
2013-09-08 07:48:00,51.6,48.8,30.20,ENE,73,0.1,1.2,90,0.00,CLR,,0.00,172.0,WeatherDisplay:10.37,2013-09-08 05:48:00,
2013-09-08 07:53:00,52.3,49.2,30.20,ENE,73,0.0,0.0,89,0.00,CLR,,0.00,186.0,WeatherDisplay:10.37,2013-09-08 05:53:00,
2013-09-08 07:58:00,53.2,49.4,30.20,ENE,73,0.0,0.0,87,0.00,CLR,,0.00,199.0,WeatherDisplay:10.37,2013-09-08 05:58:00,
2013-09-08 08:03:00,54.0,49.9,30.20,ENE,73,0.0,0.0,86,0.00,CLR,,0.00,209.0,WeatherDisplay:10.37,2013-09-08 06:03:00,
2013-09-08 08:08:00,55.0,49.9,30.20,ENE,73,1.2,3.5,83,0.00,CLR,,0.00,223.0,WeatherDisplay:10.37,2013-09-08 06:08:00,
2013-09-08 08:13:00,55.8,50.4,30.20,ENE,73,0.0,0.0,82,0.00,CLR,,0.00,236.0,WeatherDisplay:10.37,2013-09-08 06:13:00,
2013-09-08 08:18:00,56.5,50.4,30.20,ENE,73,0.0,0.0,80,0.00,CLR,,0.00,250.0,WeatherDisplay:10.37,2013-09-08 06:18:00,
2013-09-08 08:23:00,57.4,51.3,30.20,ENE,73,0.0,0.0,80,0.00,CLR,,0.00,260.0,WeatherDisplay:10.37,2013-09-08 06:23:00,
2013-09-08 08:28:00,57.9,50.7,30.20,ENE,73,0.0,0.0,77,0.00,CLR,,0.00,276.0,WeatherDisplay:10.37,2013-09-08 06:28:00,
2013-09-08 08:33:00,58.8,51.2,30.20,ENE,73,0.0,0.0,76,0.00,CLR,,0.00,287.0,WeatherDisplay:10.37,2013-09-08 06:33:00,
2013-09-08 08:38:00,59.4,51.1,30.20,ENE,73,0.0,0.0,74,0.00,CLR,,0.00,302.0,WeatherDisplay:10.37,2013-09-08 06:38:00,
2013-09-08 08:43:00,60.1,52.1,30.21,ENE,73,0.0,0.0,75,0.00,CLR,,0.00,315.0,WeatherDisplay:10.37,2013-09-08 06:43:00,
2013-09-08 08:48:00,60.5,50.3,30.21,ENE,73,0.0,0.0,69,0.00,CLR,,0.00,327.0,WeatherDisplay:10.37,2013-09-08 06:48:00,
2013-09-08 08:53:00,61.3,50.6,30.21,ENE,73,0.0,0.0,68,0.00,CLR,,0.00,341.0,WeatherDisplay:10.37,2013-09-08 06:53:00,
2013-09-08 08:58:00,62.0,50.5,30.21,ENE,73,0.0,1.2,66,0.00,CLR,,0.00,353.0,WeatherDisplay:10.37,2013-09-08 06:58:00,
2013-09-08 09:03:00,62.7,50.3,30.21,NE,34,0.0,1.2,64,0.00,CLR,,0.00,366.0,WeatherDisplay:10.37,2013-09-08 07:03:00,
2013-09-08 09:08:00,63.7,50.4,30.21,NE,34,0.0,1.2,62,0.00,CLR,,0.00,380.0,WeatherDisplay:10.37,2013-09-08 07:08:00,
2013-09-08 09:13:00,64.6,51.3,30.21,NE,34,0.0,1.2,62,0.00,CLR,,0.00,388.0,WeatherDisplay:10.37,2013-09-08 07:13:00,
2013-09-08 09:18:00,65.4,51.1,30.21,NE,34,0.0,1.2,60,0.00,CLR,,0.00,401.0,WeatherDisplay:10.37,2013-09-08 07:18:00,
2013-09-08 09:23:00,65.8,50.6,30.21,NNE,22,0.0,0.0,58,0.00,CLR,,0.00,413.0,WeatherDisplay:10.37,2013-09-08 07:23:00,
2013-09-08 09:28:00,66.4,51.2,30.21,NNE,22,0.1,1.2,58,0.00,CLR,,0.00,425.0,WeatherDisplay:10.37,2013-09-08 07:28:00,
2013-09-08 09:33:00,67.0,50.8,30.21,NNE,22,0.0,1.2,56,0.00,CLR,,0.00,436.0,WeatherDisplay:10.37,2013-09-08 07:33:00,
2013-09-08 09:38:00,67.9,54.0,30.21,ENE,63,0.6,3.0,61,0.00,CLR,,0.00,448.0,WeatherDisplay:10.37,2013-09-08 07:38:00,
2013-09-08 09:43:00,68.6,52.3,30.21,East,96,0.5,2.3,56,0.00,CLR,,0.00,462.0,WeatherDisplay:10.37,2013-09-08 07:43:00,
2013-09-08 09:48:00,69.3,50.4,30.21,South,171,3.2,6.0,51,0.00,CLR,,0.00,471.0,WeatherDisplay:10.37,2013-09-08 07:48:00,
2013-09-08 09:53:00,70.1,52.7,30.21,South,171,0.5,3.5,54,0.00,CLR,,0.00,482.0,WeatherDisplay:10.37,2013-09-08 07:53:00,
2013-09-08 09:58:00,70.8,53.3,30.21,SE,126,1.3,5.0,54,0.00,CLR,,0.00,492.0,WeatherDisplay:10.37,2013-09-08 07:58:00,
2013-09-08 10:03:00,70.9,50.2,30.21,South,182,1.3,5.8,48,0.00,CLR,,0.00,503.0,WeatherDisplay:10.37,2013-09-08 08:03:00,
2013-09-08 10:08:00,71.2,51.1,30.21,South,190,1.2,3.5,49,0.00,CLR,,0.00,515.0,WeatherDisplay:10.37,2013-09-08 08:08:00,
2013-09-08 10:13:00,71.5,51.9,30.21,South,169,0.6,3.5,50,0.00,CLR,,0.00,522.0,WeatherDisplay:10.37,2013-09-08 08:13:00,
2013-09-08 10:18:00,71.8,51.0,30.21,SE,140,2.8,5.8,48,0.00,CLR,,0.00,533.0,WeatherDisplay:10.37,2013-09-08 08:18:00,
2013-09-08 10:23:00,71.7,51.5,30.21,South,176,0.4,1.2,49,0.00,CLR,,0.00,540.0,WeatherDisplay:10.37,2013-09-08 08:23:00,
2013-09-08 10:28:00,71.5,51.3,30.21,SE,126,0.9,5.0,49,0.00,CLR,,0.00,548.0,WeatherDisplay:10.37,2013-09-08 08:28:00,
2013-09-08 10:33:00,71.3,50.6,30.21,SSE,151,1.9,5.8,48,0.00,CLR,,0.00,557.0,WeatherDisplay:10.37,2013-09-08 08:33:00,
2013-09-08 10:38:00,71.4,51.2,30.20,SE,132,2.9,5.0,49,0.00,CLR,,0.00,568.0,WeatherDisplay:10.37,2013-09-08 08:38:00,
2013-09-08 10:43:00,71.3,51.1,30.20,SE,131,0.0,0.0,49,0.00,CLR,,0.00,575.0,WeatherDisplay:10.37,2013-09-08 08:43:00,
2013-09-08 10:48:00,71.9,51.7,30.20,SW,217,1.1,4.6,49,0.00,CLR,,0.00,584.0,WeatherDisplay:10.37,2013-09-08 08:48:00,
2013-09-08 10:53:00,72.3,50.4,30.20,SE,144,0.8,2.3,46,0.00,CLR,,0.00,594.0,WeatherDisplay:10.37,2013-09-08 08:53:00,
2013-09-08 10:58:00,72.3,50.9,30.20,SW,214,2.1,4.0,47,0.00,CLR,,0.00,599.0,WeatherDisplay:10.37,2013-09-08 08:58:00,
2013-09-08 11:03:00,72.5,51.1,30.20,SSW,196,2.0,7.0,47,0.00,CLR,,0.00,608.0,WeatherDisplay:10.37,2013-09-08 09:03:00,
2013-09-08 11:08:00,72.7,49.5,30.20,SW,217,3.0,4.6,44,0.00,CLR,,0.00,613.0,WeatherDisplay:10.37,2013-09-08 09:08:00,
2013-09-08 11:13:00,72.8,51.4,30.20,SSE,159,1.7,4.0,47,0.00,CLR,,0.00,494.0,WeatherDisplay:10.37,2013-09-08 09:13:00,
2013-09-08 11:18:00,73.4,50.2,30.19,SW,218,1.7,4.6,44,0.00,CLR,,0.00,626.0,WeatherDisplay:10.37,2013-09-08 09:18:00,
2013-09-08 11:23:00,73.6,49.7,30.19,South,174,0.0,3.5,43,0.00,CLR,,0.00,633.0,WeatherDisplay:10.37,2013-09-08 09:23:00,
2013-09-08 11:28:00,73.3,50.1,30.19,SSE,168,0.5,4.6,44,0.00,CLR,,0.00,636.0,WeatherDisplay:10.37,2013-09-08 09:28:00,
2013-09-08 11:33:00,73.3,48.2,30.19,SW,216,0.1,3.5,41,0.00,CLR,,0.00,640.0,WeatherDisplay:10.37,2013-09-08 09:33:00,
2013-09-08 11:38:00,73.2,50.6,30.19,South,189,0.3,3.5,45,0.00,CLR,,0.00,647.0,WeatherDisplay:10.37,2013-09-08 09:38:00,
2013-09-08 11:43:00,73.6,50.9,30.19,SSE,159,0.6,3.0,45,0.00,CLR,,0.00,654.0,WeatherDisplay:10.37,2013-09-08 09:43:00,
2013-09-08 11:48:00,74.4,51.7,30.19,SSW,211,1.2,4.6,45,0.00,CLR,,0.00,657.0,WeatherDisplay:10.37,2013-09-08 09:48:00,
2013-09-08 11:53:00,74.6,51.9,30.19,SW,219,0.0,1.2,45,0.00,CLR,,0.00,661.0,WeatherDisplay:10.37,2013-09-08 09:53:00,
2013-09-08 11:58:00,74.2,48.3,30.18,NW,319,1.9,4.0,40,0.00,CLR,,0.00,663.0,WeatherDisplay:10.37,2013-09-08 09:58:00,
2013-09-08 12:03:00,73.9,50.0,30.18,East,81,0.1,3.5,43,0.00,CLR,,0.00,680.0,WeatherDisplay:10.37,2013-09-08 10:03:00,
2013-09-08 12:08:00,74.1,52.0,30.18,SSE,163,2.1,4.0,46,0.00,CLR,,0.00,629.0,WeatherDisplay:10.37,2013-09-08 10:08:00,
2013-09-08 12:13:00,74.7,53.1,30.18,SSE,167,1.0,2.3,47,0.00,CLR,,0.00,675.0,WeatherDisplay:10.37,2013-09-08 10:13:00,
2013-09-08 12:18:00,74.9,49.6,30.18,WSW,250,0.4,2.3,41,0.00,CLR,,0.00,675.0,WeatherDisplay:10.37,2013-09-08 10:18:00,
2013-09-08 12:23:00,75.1,51.1,30.18,SE,138,3.1,5.8,43,0.00,CLR,,0.00,677.0,WeatherDisplay:10.37,2013-09-08 10:23:00,
2013-09-08 12:28:00,74.9,51.5,30.18,ESE,119,1.4,3.5,44,0.00,CLR,,0.00,677.0,WeatherDisplay:10.37,2013-09-08 10:28:00,
2013-09-08 12:33:00,74.7,50.1,30.18,SE,140,0.5,2.3,42,0.00,CLR,,0.00,679.0,WeatherDisplay:10.37,2013-09-08 10:33:00,
2013-09-08 12:38:00,74.4,49.2,30.18,NNW,333,0.8,3.5,41,0.00,CLR,,0.00,679.0,WeatherDisplay:10.37,2013-09-08 10:38:00,
2013-09-08 12:43:00,74.7,50.1,30.18,SE,127,1.8,4.6,42,0.00,CLR,,0.00,682.0,WeatherDisplay:10.37,2013-09-08 10:43:00,
2013-09-08 12:48:00,74.9,49.6,30.18,ESE,110,2.0,3.5,41,0.00,CLR,,0.00,680.0,WeatherDisplay:10.37,2013-09-08 10:48:00,
2013-09-08 12:53:00,74.7,49.4,30.18,ENE,71,1.0,3.5,41,0.00,CLR,,0.00,679.0,WeatherDisplay:10.37,2013-09-08 10:53:00,
2013-09-08 12:58:00,75.0,49.0,30.18,WNW,285,2.6,4.0,40,0.00,CLR,,0.00,682.0,WeatherDisplay:10.37,2013-09-08 10:58:00,
2013-09-08 13:03:00,75.1,49.1,30.18,WNW,285,0.0,0.0,40,0.00,CLR,,0.00,686.0,WeatherDisplay:10.37,2013-09-08 11:03:00,
2013-09-08 13:08:00,75.3,50.6,30.18,SE,131,1.7,3.5,42,0.00,CLR,,0.00,679.0,WeatherDisplay:10.37,2013-09-08 11:08:00,
2013-09-08 13:13:00,75.5,50.8,30.17,East,83,2.5,6.0,42,0.00,CLR,,0.00,679.0,WeatherDisplay:10.37,2013-09-08 11:13:00,
2013-09-08 13:18:00,75.6,52.1,30.17,SSE,150,1.0,2.3,44,0.00,CLR,,0.00,617.0,WeatherDisplay:10.37,2013-09-08 11:18:00,
2013-09-08 13:23:00,76.2,52.1,30.17,SW,225,2.2,4.0,43,0.00,CLR,,0.00,675.0,WeatherDisplay:10.37,2013-09-08 11:23:00,
2013-09-08 13:28:00,76.5,49.7,30.17,WSW,251,1.1,4.0,39,0.00,CLR,,0.00,670.0,WeatherDisplay:10.37,2013-09-08 11:28:00,
2013-09-08 13:33:00,76.6,52.4,30.17,SSW,210,0.1,3.5,43,0.00,CLR,,0.00,668.0,WeatherDisplay:10.37,2013-09-08 11:33:00,
2013-09-08 13:38:00,76.3,49.5,30.17,SE,136,0.7,4.6,39,0.00,CLR,,0.00,664.0,WeatherDisplay:10.37,2013-09-08 11:38:00,
2013-09-08 13:43:00,76.1,50.7,30.16,South,182,2.0,3.5,41,0.00,CLR,,0.00,663.0,WeatherDisplay:10.37,2013-09-08 11:43:00,
2013-09-08 13:48:00,76.4,51.6,30.16,SSE,155,3.5,5.8,42,0.00,CLR,,0.00,664.0,WeatherDisplay:10.37,2013-09-08 11:48:00,
2013-09-08 13:53:00,76.8,49.3,30.16,ESE,123,4.7,8.1,38,0.00,CLR,,0.00,656.0,WeatherDisplay:10.37,2013-09-08 11:53:00,
2013-09-08 13:58:00,76.6,50.5,30.16,East,84,1.5,3.5,40,0.00,CLR,,0.00,650.0,WeatherDisplay:10.37,2013-09-08 11:58:00,
2013-09-08 14:03:00,76.4,52.9,30.16,SE,141,1.7,3.5,44,0.00,CLR,,0.00,647.0,WeatherDisplay:10.37,2013-09-08 12:03:00,
2013-09-08 14:08:00,76.6,49.8,30.16,ENE,66,0.9,4.6,39,0.00,CLR,,0.00,638.0,WeatherDisplay:10.37,2013-09-08 12:08:00,
2013-09-08 14:13:00,76.7,49.2,30.16,NE,51,1.6,4.6,38,0.00,CLR,,0.00,596.0,WeatherDisplay:10.37,2013-09-08 12:13:00,
2013-09-08 14:18:00,76.7,50.6,30.16,South,187,2.6,4.0,40,0.00,CLR,,0.00,622.0,WeatherDisplay:10.37,2013-09-08 12:18:00,
2013-09-08 14:23:00,76.7,49.9,30.15,SE,139,2.6,7.0,39,0.00,CLR,,0.00,628.0,WeatherDisplay:10.37,2013-09-08 12:23:00,
2013-09-08 14:28:00,77.0,50.8,30.15,East,99,1.1,4.6,40,0.00,CLR,,0.00,617.0,WeatherDisplay:10.37,2013-09-08 12:28:00,
2013-09-08 14:33:00,77.0,48.7,30.15,West,274,1.0,3.5,37,0.00,CLR,,0.00,612.0,WeatherDisplay:10.37,2013-09-08 12:33:00,
2013-09-08 14:38:00,77.1,50.9,30.15,ESE,121,1.9,5.0,40,0.00,CLR,,0.00,612.0,WeatherDisplay:10.37,2013-09-08 12:38:00,
2013-09-08 14:43:00,77.2,51.0,30.15,ESE,112,1.1,4.6,40,0.00,CLR,,0.00,552.0,WeatherDisplay:10.37,2013-09-08 12:43:00,
2013-09-08 14:48:00,77.3,49.0,30.15,South,171,1.6,4.6,37,0.00,CLR,,0.00,596.0,WeatherDisplay:10.37,2013-09-08 12:48:00,
2013-09-08 14:53:00,77.3,47.5,30.15,ENE,71,1.5,3.5,35,0.00,CLR,,0.00,587.0,WeatherDisplay:10.37,2013-09-08 12:53:00,
2013-09-08 14:58:00,77.4,49.8,30.15,ESE,119,3.2,5.0,38,0.00,CLR,,0.00,575.0,WeatherDisplay:10.37,2013-09-08 12:58:00,
2013-09-08 15:03:00,77.5,47.7,30.14,SE,132,0.9,8.1,35,0.00,CLR,,0.00,566.0,WeatherDisplay:10.37,2013-09-08 13:03:00,
2013-09-08 15:08:00,77.6,50.0,30.14,South,172,2.0,4.0,38,0.00,CLR,,0.00,559.0,WeatherDisplay:10.37,2013-09-08 13:08:00,
2013-09-08 15:13:00,78.0,48.9,30.14,SE,146,0.9,6.9,36,0.00,CLR,,0.00,550.0,WeatherDisplay:10.37,2013-09-08 13:13:00,
2013-09-08 15:18:00,78.1,49.7,30.14,SSE,167,1.9,4.6,37,0.00,CLR,,0.00,541.0,WeatherDisplay:10.37,2013-09-08 13:18:00,
2013-09-08 15:23:00,77.9,48.8,30.14,SSE,155,3.4,7.0,36,0.00,CLR,,0.00,529.0,WeatherDisplay:10.37,2013-09-08 13:23:00,
2013-09-08 15:28:00,77.6,49.3,30.14,South,191,1.9,4.6,37,0.00,CLR,,0.00,519.0,WeatherDisplay:10.37,2013-09-08 13:28:00,
2013-09-08 15:33:00,77.7,49.3,30.14,SSE,161,4.1,8.1,37,0.00,CLR,,0.00,504.0,WeatherDisplay:10.37,2013-09-08 13:33:00,
2013-09-08 15:38:00,77.6,49.3,30.14,ESE,121,2.8,7.0,37,0.00,CLR,,0.00,497.0,WeatherDisplay:10.37,2013-09-08 13:38:00,
2013-09-08 15:43:00,77.5,48.4,30.14,East,96,0.3,3.5,36,0.00,CLR,,0.00,485.0,WeatherDisplay:10.37,2013-09-08 13:43:00,
2013-09-08 15:48:00,77.4,49.8,30.14,East,96,0.6,1.2,38,0.00,CLR,,0.00,476.0,WeatherDisplay:10.37,2013-09-08 13:48:00,
2013-09-08 15:53:00,77.5,49.9,30.14,South,191,1.7,6.0,38,0.00,CLR,,0.00,466.0,WeatherDisplay:10.37,2013-09-08 13:53:00,
2013-09-08 15:58:00,77.7,50.8,30.14,SSE,154,1.2,3.5,39,0.00,CLR,,0.00,459.0,WeatherDisplay:10.37,2013-09-08 13:58:00,
2013-09-08 16:03:00,78.0,51.7,30.14,South,186,1.2,4.0,40,0.00,CLR,,0.00,446.0,WeatherDisplay:10.37,2013-09-08 14:03:00,
2013-09-08 16:08:00,78.0,49.6,30.14,SSE,155,3.6,6.0,37,0.00,CLR,,0.00,420.0,WeatherDisplay:10.37,2013-09-08 14:08:00,
2013-09-08 16:13:00,78.1,51.1,30.14,SW,231,1.1,6.9,39,0.00,CLR,,0.00,418.0,WeatherDisplay:10.37,2013-09-08 14:13:00,
2013-09-08 16:18:00,78.1,50.4,30.14,SE,136,0.5,3.0,38,0.00,CLR,,0.00,325.0,WeatherDisplay:10.37,2013-09-08 14:18:00,
2013-09-08 16:23:00,77.9,50.9,30.13,SSE,159,1.0,3.5,39,0.00,CLR,,0.00,406.0,WeatherDisplay:10.37,2013-09-08 14:23:00,
2013-09-08 16:28:00,78.0,52.4,30.13,WSW,258,0.1,1.2,41,0.00,CLR,,0.00,334.0,WeatherDisplay:10.37,2013-09-08 14:28:00,
2013-09-08 16:33:00,77.8,49.4,30.13,ESE,122,1.2,4.6,37,0.00,CLR,,0.00,308.0,WeatherDisplay:10.37,2013-09-08 14:33:00,
2013-09-08 16:38:00,77.8,49.4,30.13,East,87,2.0,5.8,37,0.00,CLR,,0.00,320.0,WeatherDisplay:10.37,2013-09-08 14:38:00,
2013-09-08 16:43:00,77.7,48.6,30.13,SE,128,2.0,3.5,36,0.00,CLR,,0.00,279.0,WeatherDisplay:10.37,2013-09-08 14:43:00,
2013-09-08 16:48:00,77.6,50.7,30.13,South,181,0.7,3.5,39,0.00,CLR,,0.00,350.0,WeatherDisplay:10.37,2013-09-08 14:48:00,
2013-09-08 16:53:00,77.6,48.5,30.13,SE,136,2.0,4.6,36,0.00,CLR,,0.00,341.0,WeatherDisplay:10.37,2013-09-08 14:53:00,
2013-09-08 16:58:00,77.6,49.3,30.13,South,169,3.3,7.0,37,0.00,CLR,,0.00,315.0,WeatherDisplay:10.37,2013-09-08 14:58:00,
2013-09-08 17:03:00,77.5,48.4,30.13,SSE,148,3.6,6.9,36,0.00,CLR,,0.00,299.0,WeatherDisplay:10.37,2013-09-08 15:03:00,
2013-09-08 17:08:00,77.4,49.8,30.13,South,169,1.5,3.5,38,0.00,CLR,,0.00,149.0,WeatherDisplay:10.37,2013-09-08 15:08:00,
2013-09-08 17:13:00,77.0,49.4,30.13,South,182,0.3,4.6,38,0.00,CLR,,0.00,258.0,WeatherDisplay:10.37,2013-09-08 15:13:00,
2013-09-08 17:18:00,76.7,49.9,30.13,SSW,192,0.6,3.0,39,0.00,CLR,,0.00,267.0,WeatherDisplay:10.37,2013-09-08 15:18:00,
2013-09-08 17:23:00,76.9,47.9,30.13,SSW,197,1.4,4.0,36,0.00,CLR,,0.00,206.0,WeatherDisplay:10.37,2013-09-08 15:23:00,
2013-09-08 17:28:00,77.1,49.5,30.13,SW,227,1.0,3.5,38,0.00,CLR,,0.00,232.0,WeatherDisplay:10.37,2013-09-08 15:28:00,
2013-09-08 17:33:00,77.2,49.6,30.13,South,177,2.9,6.0,38,0.00,CLR,,0.00,220.0,WeatherDisplay:10.37,2013-09-08 15:33:00,
2013-09-08 17:38:00,77.2,49.6,30.13,SSW,201,0.6,3.5,38,0.00,CLR,,0.00,179.0,WeatherDisplay:10.37,2013-09-08 15:38:00,
2013-09-08 17:43:00,77.0,48.0,30.12,South,178,2.4,4.6,36,0.00,CLR,,0.00,155.0,WeatherDisplay:10.37,2013-09-08 15:43:00,
2013-09-08 17:48:00,76.8,49.3,30.12,SE,138,1.7,4.0,38,0.00,FEW,,0.00,62.0,WeatherDisplay:10.37,2013-09-08 15:48:00,
2013-09-08 17:53:00,76.4,48.9,30.12,South,178,2.2,4.0,38,0.00,SCT,,0.00,91.0,WeatherDisplay:10.37,2013-09-08 15:53:00,
2013-09-08 17:58:00,75.8,49.8,30.12,South,184,1.3,3.5,40,0.00,SCT,,0.00,114.0,WeatherDisplay:10.37,2013-09-08 15:58:00,
2013-09-08 18:03:00,75.4,48.7,30.12,South,187,1.0,3.5,39,0.00,FEW,,0.00,125.0,WeatherDisplay:10.37,2013-09-08 16:03:00,
2013-09-08 18:08:00,75.2,48.5,30.12,SSE,159,1.8,3.5,39,0.00,CLR,,0.00,74.0,WeatherDisplay:10.37,2013-09-08 16:08:00,
2013-09-08 18:13:00,75.0,48.4,30.12,South,177,0.7,3.5,39,0.00,FEW,,0.00,90.0,WeatherDisplay:10.37,2013-09-08 16:13:00,
2013-09-08 18:18:00,74.6,48.7,30.12,SSE,165,0.8,3.0,40,0.00,FEW,,0.00,65.0,WeatherDisplay:10.37,2013-09-08 16:18:00,
2013-09-08 18:23:00,74.3,49.1,30.11,SSE,165,0.0,1.2,41,0.00,FEW,,0.00,40.0,WeatherDisplay:10.37,2013-09-08 16:23:00,
2013-09-08 18:28:00,74.0,49.4,30.11,SSE,165,0.2,1.2,42,0.00,FEW,,0.00,47.0,WeatherDisplay:10.37,2013-09-08 16:28:00,
2013-09-08 18:33:00,73.5,49.6,30.11,SSE,165,0.7,2.3,43,0.00,FEW,,0.00,44.0,WeatherDisplay:10.37,2013-09-08 16:33:00,
2013-09-08 18:38:00,73.1,49.9,30.11,SSE,165,0.0,1.2,44,0.00,FEW,,0.00,23.0,WeatherDisplay:10.37,2013-09-08 16:38:00,
2013-09-08 18:43:00,72.9,50.9,30.11,SSE,165,0.0,1.2,46,0.00,FEW,,0.00,21.0,WeatherDisplay:10.37,2013-09-08 16:43:00,
2013-09-08 18:48:00,72.6,50.6,30.11,SSE,161,0.7,2.3,46,0.00,FEW,,0.00,16.0,WeatherDisplay:10.37,2013-09-08 16:48:00,
2013-09-08 18:53:00,72.3,50.4,30.11,SE,138,0.1,2.3,46,0.00,FEW,,0.00,12.0,WeatherDisplay:10.37,2013-09-08 16:53:00,
2013-09-08 18:58:00,71.9,50.6,30.11,SE,137,0.7,2.3,47,0.00,FEW,,0.00,9.0,WeatherDisplay:10.37,2013-09-08 16:58:00,
2013-09-08 19:03:00,71.5,50.8,30.11,SE,137,1.5,3.5,48,0.00,FEW,,0.00,0.0,WeatherDisplay:10.37,2013-09-08 17:03:00,
2013-09-08 19:08:00,71.1,50.4,30.11,ESE,120,0.4,3.5,48,0.00,FEW,,0.00,0.0,WeatherDisplay:10.37,2013-09-08 17:08:00,
2013-09-08 19:13:00,70.8,50.1,30.11,ESE,120,0.2,2.3,48,0.00,FEW,,0.00,0.0,WeatherDisplay:10.37,2013-09-08 17:13:00,
2013-09-08 19:18:00,70.5,49.9,30.11,SSE,149,2.0,3.5,48,0.00,FEW,,0.00,0.0,WeatherDisplay:10.37,2013-09-08 17:18:00,
2013-09-08 19:23:00,70.2,49.6,30.11,ESE,113,0.5,5.8,48,0.00,FEW,,0.00,0.0,WeatherDisplay:10.37,2013-09-08 17:23:00,
2013-09-08 19:28:00,70.0,49.4,30.11,SE,132,0.4,3.0,48,0.00,FEW,,0.00,0.0,WeatherDisplay:10.37,2013-09-08 17:28:00,
2013-09-08 19:33:00,69.9,49.3,30.11,SE,128,0.4,3.5,48,0.00,FEW,,0.00,0.0,WeatherDisplay:10.37,2013-09-08 17:33:00,
2013-09-08 19:38:00,69.8,49.2,30.11,SE,128,0.3,2.3,48,0.00,FEW,,0.00,0.0,WeatherDisplay:10.37,2013-09-08 17:38:00,
2013-09-08 19:43:00,69.6,49.0,30.11,SE,137,1.5,3.5,48,0.00,FEW,,0.00,0.0,WeatherDisplay:10.37,2013-09-08 17:43:00,
2013-09-08 19:48:00,69.5,48.4,30.11,SE,136,0.6,3.5,47,0.00,FEW,,0.00,0.0,WeatherDisplay:10.37,2013-09-08 17:48:00,
2013-09-08 19:53:00,69.3,49.3,30.11,SE,136,0.7,2.3,49,0.00,FEW,,0.00,0.0,WeatherDisplay:10.37,2013-09-08 17:53:00,
2013-09-08 19:58:00,69.0,49.6,30.11,SE,136,0.1,1.2,50,0.00,FEW,,0.00,0.0,WeatherDisplay:10.37,2013-09-08 17:58:00,
2013-09-08 20:03:00,68.7,49.8,30.11,SE,136,0.0,1.2,51,0.00,FEW,,0.00,0.0,WeatherDisplay:10.37,2013-09-08 18:03:00,
2013-09-08 20:08:00,68.3,50.5,30.11,SE,136,0.0,1.0,53,0.00,FEW,,0.00,0.0,WeatherDisplay:10.37,2013-09-08 18:08:00,
2013-09-08 20:13:00,67.7,49.9,30.11,SE,136,0.0,0.0,53,0.00,FEW,,0.00,0.0,WeatherDisplay:10.37,2013-09-08 18:13:00,
2013-09-08 20:18:00,67.0,49.3,30.11,SE,136,0.0,0.0,53,0.00,FEW,,0.00,0.0,WeatherDisplay:10.37,2013-09-08 18:18:00,
2013-09-08 20:23:00,66.4,49.7,30.12,SE,136,0.0,0.0,55,0.00,FEW,,0.00,0.0,WeatherDisplay:10.37,2013-09-08 18:23:00,
2013-09-08 20:28:00,65.7,49.6,30.12,SE,136,0.0,0.0,56,0.00,FEW,,0.00,0.0,WeatherDisplay:10.37,2013-09-08 18:28:00,
2013-09-08 20:33:00,65.1,50.0,30.12,SE,136,0.0,0.0,58,0.00,FEW,,0.00,0.0,WeatherDisplay:10.37,2013-09-08 18:33:00,
2013-09-08 20:38:00,64.5,49.8,30.12,SE,136,0.0,0.0,59,0.00,FEW,,0.00,0.0,WeatherDisplay:10.37,2013-09-08 18:38:00,
2013-09-08 20:43:00,63.9,50.2,30.12,SE,136,0.0,0.0,61,0.00,FEW,,0.00,0.0,WeatherDisplay:10.37,2013-09-08 18:43:00,
2013-09-08 20:48:00,63.3,49.6,30.11,SE,136,0.0,0.0,61,0.00,FEW,,0.00,0.0,WeatherDisplay:10.37,2013-09-08 18:48:00,
2013-09-08 20:53:00,62.7,49.5,30.12,SE,136,0.0,0.0,62,0.00,FEW,,0.00,0.0,WeatherDisplay:10.37,2013-09-08 18:53:00,
2013-09-08 20:58:00,62.3,50.4,30.12,SE,136,0.0,0.0,65,0.00,FEW,,0.00,0.0,WeatherDisplay:10.37,2013-09-08 18:58:00,
2013-09-08 21:03:00,61.8,50.3,30.11,SE,136,0.0,0.0,66,0.00,FEW,,0.00,0.0,WeatherDisplay:10.37,2013-09-08 19:03:00,
2013-09-08 21:08:00,61.3,50.2,30.11,SE,136,0.0,0.0,67,0.00,FEW,,0.00,0.0,WeatherDisplay:10.37,2013-09-08 19:08:00,
2013-09-08 21:13:00,60.9,50.3,30.11,SE,136,0.0,0.0,68,0.00,FEW,,0.00,0.0,WeatherDisplay:10.37,2013-09-08 19:13:00,
2013-09-08 21:18:00,60.6,50.4,30.11,SE,136,0.0,0.0,69,0.00,FEW,,0.00,0.0,WeatherDisplay:10.37,2013-09-08 19:18:00,
2013-09-08 21:23:00,60.2,50.4,30.11,SE,136,0.0,0.0,70,0.00,FEW,,0.00,0.0,WeatherDisplay:10.37,2013-09-08 19:23:00,
2013-09-08 21:28:00,59.9,50.1,30.11,SE,136,0.0,0.0,70,0.00,FEW,,0.00,0.0,WeatherDisplay:10.37,2013-09-08 19:28:00,
2013-09-08 21:33:00,59.6,50.6,30.11,SE,136,0.0,0.0,72,0.00,FEW,,0.00,0.0,WeatherDisplay:10.37,2013-09-08 19:33:00,
2013-09-08 21:38:00,59.3,50.3,30.11,SE,136,0.0,1.2,72,0.00,FEW,,0.00,0.0,WeatherDisplay:10.37,2013-09-08 19:38:00,
2013-09-08 21:44:00,59.0,50.4,30.11,SE,136,0.0,0.0,73,0.00,FEW,,0.00,0.0,WeatherDisplay:10.37,2013-09-08 19:44:00,
2013-09-08 21:49:00,58.8,50.2,30.11,SE,136,0.0,0.0,73,0.00,FEW,,0.00,0.0,WeatherDisplay:10.37,2013-09-08 19:49:00,
2013-09-08 21:54:00,58.6,50.3,30.11,SE,136,0.0,0.0,74,0.00,FEW,,0.00,0.0,WeatherDisplay:10.37,2013-09-08 19:54:00,
2013-09-08 21:59:00,58.5,50.2,30.11,SE,136,0.0,0.0,74,0.00,FEW,,0.00,0.0,WeatherDisplay:10.37,2013-09-08 19:59:00,
2013-09-08 22:04:00,58.3,50.4,30.11,SE,136,0.0,0.0,75,0.00,FEW,,0.00,0.0,WeatherDisplay:10.37,2013-09-08 20:04:00,
2013-09-08 22:09:00,58.2,50.3,30.11,SE,136,0.0,0.0,75,0.00,FEW,,0.00,0.0,WeatherDisplay:10.37,2013-09-08 20:09:00,
2013-09-08 22:14:00,58.1,50.6,30.11,SE,136,0.0,0.0,76,0.00,FEW,,0.00,0.0,WeatherDisplay:10.37,2013-09-08 20:14:00,
2013-09-08 22:19:00,57.9,50.4,30.11,SE,136,0.0,1.2,76,0.00,FEW,,0.00,0.0,WeatherDisplay:10.37,2013-09-08 20:19:00,
2013-09-08 22:24:00,57.8,50.3,30.11,SE,136,0.0,1.2,76,0.00,FEW,,0.00,0.0,WeatherDisplay:10.37,2013-09-08 20:24:00,
2013-09-08 22:29:00,57.7,50.5,30.11,SE,136,0.0,0.0,77,0.00,FEW,,0.00,0.0,WeatherDisplay:10.37,2013-09-08 20:29:00,
2013-09-08 22:34:00,57.7,50.5,30.11,SE,136,0.0,0.0,77,0.00,FEW,,0.00,0.0,WeatherDisplay:10.37,2013-09-08 20:34:00,
2013-09-08 22:39:00,57.6,50.4,30.11,SE,136,0.0,0.0,77,0.00,FEW,,0.00,0.0,WeatherDisplay:10.37,2013-09-08 20:39:00,
2013-09-08 22:44:00,57.5,50.7,30.11,SE,136,0.0,0.0,78,0.00,FEW,,0.00,0.0,WeatherDisplay:10.37,2013-09-08 20:44:00,
2013-09-08 22:49:00,57.4,50.6,30.11,SE,136,0.0,0.0,78,0.00,FEW,,0.00,0.0,WeatherDisplay:10.37,2013-09-08 20:49:00,
2013-09-08 22:54:00,57.2,50.4,30.11,SE,136,0.0,0.0,78,0.00,FEW,,0.00,0.0,WeatherDisplay:10.37,2013-09-08 20:54:00,
2013-09-08 22:59:00,57.0,50.2,30.11,SE,136,0.0,0.0,78,0.00,FEW,,0.00,0.0,WeatherDisplay:10.37,2013-09-08 20:59:00,
2013-09-08 23:04:00,56.8,50.0,30.11,SSE,147,1.8,3.5,78,0.00,FEW,,0.00,0.0,WeatherDisplay:10.37,2013-09-08 21:04:00,
2013-09-08 23:09:00,56.9,50.1,30.11,SE,134,1.6,5.8,78,0.00,FEW,,0.00,0.0,WeatherDisplay:10.37,2013-09-08 21:09:00,
2013-09-08 23:14:00,57.2,49.7,30.11,SE,138,1.7,5.0,76,0.00,FEW,,0.00,0.0,WeatherDisplay:10.37,2013-09-08 21:14:00,
2013-09-08 23:19:00,57.7,49.1,30.10,SE,144,1.4,5.8,73,0.00,FEW,,0.00,0.0,WeatherDisplay:10.37,2013-09-08 21:19:00,
2013-09-08 23:24:00,58.8,49.0,30.10,SE,130,1.7,4.6,70,0.00,FEW,,0.00,0.0,WeatherDisplay:10.37,2013-09-08 21:24:00,
2013-09-08 23:29:00,60.0,49.0,30.10,SE,144,0.6,3.5,67,0.00,FEW,,0.00,0.0,WeatherDisplay:10.37,2013-09-08 21:29:00,
2013-09-08 23:34:00,61.0,49.1,30.11,SE,142,1.7,4.0,65,0.00,FEW,,0.00,0.0,WeatherDisplay:10.37,2013-09-08 21:34:00,
2013-09-08 23:39:00,61.7,49.4,30.11,SE,140,0.2,2.3,64,0.00,FEW,,0.00,0.0,WeatherDisplay:10.37,2013-09-08 21:39:00,
2013-09-08 23:44:00,62.1,49.4,30.11,SE,140,0.1,1.2,63,0.00,FEW,,0.00,0.0,WeatherDisplay:10.37,2013-09-08 21:44:00,
2013-09-08 23:49:00,62.3,49.5,30.11,SE,140,0.0,1.2,63,0.00,FEW,,0.00,0.0,WeatherDisplay:10.37,2013-09-08 21:49:00,
2013-09-08 23:54:00,62.2,49.4,30.10,SE,140,0.0,1.2,63,0.00,FEW,,0.00,0.0,WeatherDisplay:10.37,2013-09-08 21:54:00,
2013-09-08 23:59:00,61.9,49.2,30.11,SE,140,0.0,1.2,63,0.00,FEW,,0.00,0.0,WeatherDisplay:10.37,2013-09-08 21:59:00,